Вернуться в каталог

STARLINK-35788

АктивенСвязьVLEO
NORAD 66831·PAYLOAD·🇺🇸 United States

Запущен Dec 2, 2025 с Vandenberg Space Force Base

Loading…

Ближайшие Пролёты (ближайшие 24 часа)

TLE

СвежийSource: CelesTrak SupGP

Эпоха: Sep 15, 2026, 04:23 UTC

1 66831C 25280L   26258.18312500  .00015083  00000+0  12648-2 0  2581
2 66831  70.0010 216.5357 0003471 284.0709  74.6197 14.98299624    17

Отслеживайте STARLINK-35788 в реальном времени с AllMySat

Download on the App Store